Vorticity
7 5 8 5 6 8 6 4 3 3 4 8 9 8 8 10 11 10 11 7 8 6
7 6 7 6 5 6 7 5 3 4 6 9 8 8 6 8 11 9 12 9 7 7
5 6 7 6 5 4 6 3 3 3 3 4 7 6 5 6 12 11 9 10 8 6
5 5 6 7 6 5 4 4 5 4 4 6 9 8 5 7 6 9 12 10 9 8
6 5 5 5 6 6 5 5 5 4 6 6 6 9 6 5 5 6 7 11 13 10
7 5 4 4 5 5 6 7 5 3 5 6 5 5 6 5 3 3 5 6 8 10
6 7 4 4 5 4 4 4 4 4 4 3 5 4 5 5 4 3 3 4 6 7
7 5 4 4 4 4 5 4 4 4 3 3 4 4 4 4 5 6 3 3 3 5
10 11 6 5 5 4 4 5 5 5 5 5 5 5 4 4 4 5 7 4 2 3
6 7 13 9 4 5 5 3 4 5 6 7 6 7 7 6 6 5 6 7 6 3
5 3 8 9 15 6 4 3 3 3 5 5 5 6 6 7 7 8 7 7 7 6
-4 5 10 9 10 16 8 5 6 5 3 3 7 5 4 4 5 7 10 9 8 8
-10 -3 0 7 7 10 11 19 7 5 6 5 4 4 4 3 4 6 8 7 10 11
18 9 15 10 12 10 9 13 15 14 11 9 9 5 4 5 4 4 5 6 7 8
Height
5933 5934 5937 5939 5942 5945 5945 5948 5950 5951 5952 5952 5954 5955 5955 5956 5957 5958 5958 5959 5962 5963
5932 5932 5935 5938 5940 5944 5946 5948 5951 5951 5952 5953 5954 5955 5955 5956 5957 5957 5958 5959 5961 5963
5929 5932 5933 5937 5940 5942 5945 5947 5949 5950 5951 5953 5954 5956 5955 5956 5957 5957 5959 5960 5961 5962
5926 5929 5931 5934 5937 5941 5944 5945 5947 5949 5950 5951 5953 5955 5955 5956 5957 5958 5959 5960 5961 5962
5921 5924 5927 5931 5932 5936 5940 5942 5945 5947 5949 5950 5951 5953 5954 5955 5956 5957 5958 5959 5960 5961
5915 5919 5923 5926 5928 5932 5936 5940 5942 5945 5947 5949 5951 5952 5953 5954 5955 5956 5957 5958 5959 5960
5908 5913 5917 5920 5922 5926 5931 5935 5939 5942 5944 5946 5949 5950 5951 5952 5954 5955 5955 5956 5957 5958
5903 5906 5909 5914 5917 5920 5924 5928 5932 5936 5939 5941 5944 5946 5948 5949 5950 5953 5954 5954 5954 5955
5896 5900 5904 5907 5909 5913 5917 5920 5924 5929 5933 5935 5939 5940 5942 5944 5946 5949 5951 5952 5952 5952
5889 5893 5897 5900 5903 5907 5911 5914 5917 5922 5926 5929 5932 5933 5936 5938 5940 5943 5945 5947 5948 5949
5881 5885 5889 5892 5897 5901 5904 5908 5911 5914 5918 5922 5925 5926 5928 5930 5933 5936 5938 5940 5942 5944
5872 5876 5880 5885 5890 5892 5895 5899 5904 5907 5910 5914 5918 5919 5921 5922 5926 5929 5931 5933 5935 5938
5863 5866 5871 5875 5878 5881 5887 5891 5894 5899 5904 5907 5911 5912 5914 5915 5919 5923 5924 5925 5928 5931
5851 5856 5861 5865 5869 5872 5877 5881 5885 5889 5893 5898 5902 5905 5907 5908 5911 5916 5917 5919 5921 5923